LRC640 MROC-MGGT

Flight info

Callsign LRC640
Flight time 1h 32m
Altitude 36000
Route NANJO3U ULAPO UA502 MGA UA317 CAT
Aircraft A20N/M-SDE2E3FGHIRWXY/LB1

Departure

Time 2026-04-28 11:55
Airport Juan Santamaría International Airport (MROC)

Arrival

Time 2026-04-28 13:27
Airport La Aurora International Airport (MGGT)
Time Latitude Longitude Altitude Speed Heading
2026-04-28 11:38 9.99849 -84.20112 3096 ft 0 kts 338°
2026-04-28 11:45 9.99845 -84.20110 3096 ft 2 kts 339°
2026-04-28 11:45 9.99831 -84.20105 3096 ft 2 kts 338°
2026-04-28 11:45 9.99822 -84.20101 3097 ft 2 kts 338°
2026-04-28 11:45 9.99808 -84.20096 3096 ft 1 kts 339°
2026-04-28 11:46 9.99799 -84.20091 3096 ft 2 kts 310°
2026-04-28 11:46 9.99792 -84.20077 3097 ft 2 kts 277°
2026-04-28 11:46 9.99793 -84.20064 3097 ft 0 kts 249°
2026-04-28 11:46 9.99795 -84.20060 3097 ft 1 kts 248°
2026-04-28 11:47 9.99795 -84.20059 3097 ft 0 kts 249°
2026-04-28 11:48 9.99789 -84.20077 3096 ft 6 kts 250°
2026-04-28 11:49 9.99764 -84.20148 3096 ft 14 kts 251°
2026-04-28 11:49 9.99738 -84.20216 3096 ft 16 kts 248°
2026-04-28 11:49 9.99697 -84.20323 3096 ft 16 kts 250°
2026-04-28 11:49 9.99644 -84.20465 3096 ft 16 kts 250°
2026-04-28 11:50 9.99603 -84.20571 3096 ft 16 kts 249°
2026-04-28 11:50 9.99563 -84.20680 3095 ft 16 kts 249°
2026-04-28 11:50 9.99523 -84.20787 3095 ft 16 kts 249°
2026-04-28 11:50 9.99495 -84.20861 3095 ft 16 kts 250°
2026-04-28 11:51 9.99451 -84.20979 3095 ft 18 kts 249°
2026-04-28 11:51 9.99385 -84.21156 3095 ft 21 kts 249°
2026-04-28 11:51 9.99332 -84.21295 3095 ft 20 kts 249°
2026-04-28 11:51 9.99281 -84.21431 3094 ft 20 kts 249°
2026-04-28 11:52 9.99232 -84.21562 3094 ft 19 kts 249°
2026-04-28 11:52 9.99185 -84.21690 3094 ft 19 kts 250°
2026-04-28 11:52 9.99154 -84.21775 3094 ft 19 kts 250°
2026-04-28 11:52 9.99096 -84.21941 3093 ft 18 kts 265°
2026-04-28 11:53 9.99104 -84.22069 3093 ft 18 kts 253°
2026-04-28 11:53 9.99058 -84.22178 3093 ft 13 kts 229°
2026-04-28 11:53 9.98973 -84.22187 3093 ft 13 kts 162°
2026-04-28 11:53 9.98916 -84.22150 3093 ft 9 kts 85°
2026-04-28 11:54 9.98932 -84.22105 3093 ft 11 kts 69°
2026-04-28 11:54 9.99021 -84.21869 3094 ft 69 kts 70°
2026-04-28 11:54 9.99385 -84.20898 3096 ft 147 kts 69°
2026-04-28 11:54 9.99779 -84.19842 3410 ft 164 kts 69°
2026-04-28 11:55 10.00060 -84.19129 3847 ft 162 kts 62°
2026-04-28 11:55 10.01303 -84.18414 4556 ft 172 kts 352°
2026-04-28 11:55 10.02395 -84.18953 5035 ft 183 kts 324°
2026-04-28 11:55 10.03070 -84.19499 5297 ft 191 kts 324°
2026-04-28 11:56 10.04560 -84.20659 5778 ft 212 kts 324°
2026-04-28 11:56 10.05594 -84.21825 6107 ft 233 kts 303°
2026-04-28 11:56 10.06063 -84.22848 6290 ft 250 kts 294°
2026-04-28 11:56 10.06695 -84.24583 6662 ft 270 kts 291°
2026-04-28 11:57 10.07340 -84.26437 7136 ft 286 kts 291°
2026-04-28 11:57 10.08014 -84.28335 7853 ft 291 kts 291°
2026-04-28 11:57 10.08717 -84.30271 8621 ft 294 kts 291°
2026-04-28 11:57 10.09669 -84.32860 9606 ft 297 kts 291°
2026-04-28 11:58 10.10543 -84.34758 10310 ft 300 kts 304°
2026-04-28 11:58 10.11382 -84.35892 10641 ft 307 kts 313°
2026-04-28 11:58 10.13006 -84.37372 10975 ft 322 kts 322°
2026-04-28 11:58 10.14829 -84.38803 11508 ft 331 kts 323°
2026-04-28 11:59 10.16678 -84.40237 12189 ft 335 kts 323°
2026-04-28 11:59 10.18527 -84.41682 12849 ft 338 kts 323°
2026-04-28 11:59 10.21010 -84.43639 13679 ft 342 kts 323°
2026-04-28 11:59 10.22906 -84.45144 14285 ft 345 kts 323°
2026-04-28 12:00 10.24179 -84.46157 14702 ft 347 kts 323°
2026-04-28 12:00 10.26078 -84.47669 15286 ft 350 kts 323°
2026-04-28 12:00 10.27995 -84.49195 15846 ft 353 kts 322°
2026-04-28 12:00 10.29772 -84.50917 16376 ft 357 kts 309°
2026-04-28 12:01 10.31706 -84.53682 17139 ft 361 kts 304°
2026-04-28 12:01 10.33104 -84.55807 17676 ft 364 kts 305°
2026-04-28 12:01 10.34592 -84.57927 18208 ft 367 kts 307°
2026-04-28 12:01 10.35596 -84.59303 18549 ft 368 kts 307°
2026-04-28 12:02 10.37635 -84.62086 19259 ft 371 kts 306°
2026-04-28 12:02 10.39182 -84.64209 19792 ft 373 kts 306°
2026-04-28 12:02 10.40210 -84.65625 20139 ft 374 kts 306°
2026-04-28 12:02 10.42267 -84.68469 20801 ft 377 kts 305°
2026-04-28 12:03 10.43303 -84.69905 21130 ft 379 kts 305°
2026-04-28 12:03 10.45386 -84.72798 21776 ft 382 kts 305°
2026-04-28 12:03 10.46431 -84.74251 22095 ft 383 kts 304°
2026-04-28 12:03 10.48517 -84.77155 22717 ft 386 kts 304°
2026-04-28 12:04 10.49591 -84.78650 23029 ft 388 kts 304°
2026-04-28 12:04 10.51715 -84.81608 23625 ft 391 kts 304°
2026-04-28 12:04 10.53321 -84.83845 24071 ft 394 kts 304°
2026-04-28 12:04 10.54411 -84.85364 24367 ft 396 kts 304°
2026-04-28 12:05 10.56028 -84.87615 24799 ft 398 kts 304°
2026-04-28 12:05 10.57671 -84.89906 25225 ft 400 kts 303°
2026-04-28 12:05 10.59305 -84.92185 25636 ft 403 kts 303°
2026-04-28 12:05 10.61520 -84.95273 26176 ft 406 kts 303°
2026-04-28 12:06 10.63198 -84.97614 26572 ft 409 kts 303°
2026-04-28 12:06 10.64868 -84.99944 26961 ft 411 kts 303°
2026-04-28 12:06 10.66571 -85.02321 27342 ft 413 kts 303°
2026-04-28 12:06 10.68277 -85.04702 27714 ft 416 kts 303°
2026-04-28 12:07 10.69404 -85.06275 27960 ft 417 kts 303°
2026-04-28 12:07 10.71691 -85.09468 28443 ft 420 kts 303°
2026-04-28 12:07 10.73413 -85.11873 28797 ft 422 kts 303°
2026-04-28 12:07 10.75130 -85.14272 29141 ft 425 kts 303°
2026-04-28 12:08 10.76297 -85.15904 29371 ft 426 kts 303°
2026-04-28 12:08 10.78044 -85.18345 29721 ft 428 kts 303°
2026-04-28 12:08 10.79797 -85.20795 30066 ft 430 kts 303°
2026-04-28 12:08 10.82138 -85.24065 30524 ft 432 kts 303°
2026-04-28 12:09 10.83324 -85.25723 30761 ft 433 kts 303°
2026-04-28 12:09 10.85687 -85.29025 31366 ft 431 kts 302°
2026-04-28 12:09 10.86860 -85.30665 31684 ft 430 kts 302°
2026-04-28 12:09 10.89192 -85.33924 32286 ft 427 kts 302°
2026-04-28 12:10 10.90365 -85.35565 32577 ft 426 kts 302°
2026-04-28 12:10 10.92105 -85.38003 33022 ft 425 kts 302°
2026-04-28 12:10 10.93851 -85.40449 33458 ft 423 kts 302°
2026-04-28 12:10 10.96158 -85.43683 33936 ft 423 kts 302°
2026-04-28 12:11 10.99026 -85.47703 33966 ft 422 kts 302°
2026-04-28 12:11 11.02506 -85.52583 33970 ft 422 kts 302°
2026-04-28 12:12 11.05958 -85.57423 33965 ft 422 kts 302°
2026-04-28 12:12 11.09396 -85.62251 33955 ft 422 kts 302°
2026-04-28 12:13 11.13420 -85.67900 33950 ft 421 kts 302°
2026-04-28 12:13 11.16855 -85.72722 33950 ft 422 kts 302°
2026-04-28 12:14 11.20304 -85.77567 33953 ft 421 kts 302°
2026-04-28 12:14 11.23182 -85.81613 33955 ft 422 kts 302°
2026-04-28 12:15 11.26608 -85.86433 33949 ft 422 kts 302°
2026-04-28 12:15 11.30623 -85.92080 33942 ft 422 kts 302°
2026-04-28 12:16 11.33491 -85.96118 33939 ft 422 kts 302°
2026-04-28 12:16 11.36935 -86.00970 33938 ft 422 kts 302°
2026-04-28 12:17 11.40804 -86.06421 33941 ft 422 kts 302°
2026-04-28 12:17 11.44255 -86.11283 33944 ft 422 kts 302°
2026-04-28 12:18 11.47717 -86.16164 33948 ft 422 kts 302°
2026-04-28 12:18 11.51137 -86.20991 33945 ft 422 kts 302°
2026-04-28 12:19 11.54003 -86.25037 33943 ft 422 kts 302°
2026-04-28 12:19 11.58035 -86.30731 33944 ft 422 kts 302°
2026-04-28 12:20 11.61480 -86.35597 33945 ft 422 kts 302°
2026-04-28 12:20 11.64902 -86.40436 33945 ft 421 kts 302°
2026-04-28 12:21 11.67749 -86.44463 33944 ft 421 kts 302°
2026-04-28 12:21 11.71750 -86.50126 33939 ft 421 kts 302°
2026-04-28 12:22 11.74603 -86.54165 33938 ft 421 kts 302°
2026-04-28 12:22 11.78008 -86.58987 33941 ft 421 kts 302°
2026-04-28 12:23 11.81439 -86.63850 33940 ft 421 kts 302°
2026-04-28 12:23 11.85432 -86.69510 33943 ft 421 kts 302°
2026-04-28 12:24 11.88862 -86.74374 33943 ft 421 kts 302°
2026-04-28 12:24 11.91705 -86.78410 33944 ft 421 kts 302°
2026-04-28 12:25 11.95700 -86.84083 33940 ft 420 kts 302°
2026-04-28 12:25 11.99104 -86.88919 33937 ft 420 kts 302°
2026-04-28 12:26 12.01943 -86.92954 33940 ft 421 kts 302°
2026-04-28 12:26 12.05919 -86.98609 33934 ft 421 kts 302°
2026-04-28 12:27 12.08788 -87.02690 33933 ft 422 kts 302°
2026-04-28 12:27 12.12780 -87.08374 33933 ft 422 kts 302°
2026-04-28 12:28 12.16214 -87.13263 33932 ft 422 kts 302°
2026-04-28 12:28 12.19053 -87.17309 33933 ft 421 kts 302°
2026-04-28 12:29 12.24175 -87.24613 33933 ft 421 kts 302°
2026-04-28 12:30 12.28139 -87.30266 33933 ft 421 kts 302°
2026-04-28 12:30 12.30978 -87.34320 33933 ft 421 kts 302°
2026-04-28 12:31 12.34960 -87.40009 33933 ft 422 kts 302°
2026-04-28 12:31 12.38365 -87.44872 33934 ft 422 kts 302°
2026-04-28 12:32 12.41227 -87.48965 33933 ft 423 kts 302°
2026-04-28 12:32 12.44638 -87.53843 33933 ft 423 kts 302°
2026-04-28 12:33 12.48622 -87.59544 33933 ft 422 kts 302°
2026-04-28 12:33 12.52024 -87.64417 33932 ft 422 kts 303°
2026-04-28 12:34 12.55440 -87.69308 33932 ft 422 kts 302°
2026-04-28 12:34 12.58858 -87.74210 33927 ft 422 kts 302°
2026-04-28 12:35 12.62255 -87.79082 33924 ft 423 kts 302°
2026-04-28 12:35 12.65111 -87.83180 33920 ft 423 kts 303°
2026-04-28 12:36 12.69096 -87.88900 33916 ft 423 kts 303°
2026-04-28 12:36 12.72516 -87.93812 33914 ft 424 kts 303°
2026-04-28 12:37 12.75931 -87.98720 33913 ft 424 kts 303°
2026-04-28 12:37 12.78784 -88.02823 33913 ft 424 kts 303°
2026-04-28 12:38 12.82776 -88.08566 33913 ft 424 kts 303°
2026-04-28 12:38 12.85623 -88.12666 33914 ft 424 kts 303°
2026-04-28 12:39 12.89020 -88.17558 33914 ft 424 kts 303°
2026-04-28 12:39 12.92445 -88.22491 33914 ft 423 kts 303°
2026-04-28 12:40 12.96416 -88.28219 33913 ft 424 kts 303°
2026-04-28 12:40 12.99840 -88.33158 33923 ft 424 kts 303°
2026-04-28 12:41 13.02678 -88.37254 33928 ft 424 kts 303°
2026-04-28 12:41 13.06651 -88.42991 33932 ft 424 kts 303°
2026-04-28 12:42 13.09483 -88.47086 33941 ft 424 kts 304°
2026-04-28 12:42 13.12899 -88.52024 33935 ft 424 kts 304°
2026-04-28 12:43 13.16884 -88.57790 33937 ft 424 kts 304°
2026-04-28 12:43 13.19732 -88.61910 33945 ft 423 kts 304°
2026-04-28 12:44 13.23122 -88.66819 33943 ft 423 kts 304°
2026-04-28 12:44 13.27096 -88.72577 33943 ft 423 kts 304°
2026-04-28 12:45 13.30504 -88.77517 33938 ft 423 kts 304°
2026-04-28 12:45 13.33313 -88.81593 33944 ft 423 kts 304°
2026-04-28 12:46 13.36708 -88.86522 33943 ft 424 kts 304°
2026-04-28 12:46 13.40123 -88.91481 33940 ft 424 kts 304°
2026-04-28 12:47 13.43528 -88.96429 33942 ft 424 kts 304°
2026-04-28 12:47 13.46923 -89.01364 33943 ft 424 kts 304°
2026-04-28 12:48 13.50895 -89.07142 33944 ft 423 kts 304°
2026-04-28 12:48 13.53730 -89.11268 33951 ft 423 kts 304°
2026-04-28 12:49 13.57715 -89.17073 33979 ft 432 kts 304°
2026-04-28 12:49 13.60606 -89.21287 33998 ft 434 kts 305°
2026-04-28 12:50 13.64086 -89.26362 34036 ft 434 kts 305°
2026-04-28 12:50 13.67547 -89.31410 34064 ft 434 kts 305°
2026-04-28 12:51 13.71614 -89.37345 34071 ft 434 kts 305°
2026-04-28 12:51 13.74500 -89.41563 34070 ft 434 kts 305°
2026-04-28 12:52 13.77964 -89.46627 34055 ft 433 kts 305°
2026-04-28 12:52 13.81425 -89.51690 34035 ft 433 kts 305°
2026-04-28 12:53 13.84897 -89.56770 34034 ft 433 kts 305°
2026-04-28 12:53 13.88345 -89.61821 34030 ft 433 kts 305°
2026-04-28 12:54 13.91808 -89.66896 34035 ft 433 kts 305°
2026-04-28 12:54 13.95276 -89.71986 34050 ft 433 kts 305°
2026-04-28 12:55 13.99312 -89.77913 34066 ft 434 kts 306°
2026-04-28 12:55 14.02754 -89.82971 34062 ft 433 kts 306°
2026-04-28 12:56 14.06173 -89.88110 34075 ft 433 kts 303°
2026-04-28 12:56 14.08840 -89.92436 34075 ft 433 kts 303°
2026-04-28 12:57 14.12595 -89.98576 34091 ft 433 kts 303°
2026-04-28 12:57 14.15270 -90.02946 34104 ft 433 kts 303°
2026-04-28 12:58 14.18483 -90.08194 34105 ft 432 kts 303°
2026-04-28 12:58 14.21650 -90.13442 34117 ft 433 kts 302°
2026-04-28 12:59 14.24668 -90.18784 34127 ft 432 kts 302°
2026-04-28 12:59 14.27684 -90.24151 34134 ft 432 kts 302°
2026-04-28 13:00 14.31201 -90.30411 34153 ft 431 kts 302°
2026-04-28 13:00 14.33682 -90.34826 34172 ft 430 kts 302°
2026-04-28 13:01 14.37186 -90.41057 34196 ft 430 kts 302°
2026-04-28 13:01 14.39677 -90.45494 34197 ft 420 kts 302°
2026-04-28 13:01 14.41562 -90.48855 34196 ft 399 kts 302°
2026-04-28 13:02 14.42481 -90.50494 34193 ft 389 kts 303°
2026-04-28 13:02 14.44033 -90.52696 34189 ft 379 kts 319°
2026-04-28 13:02 14.46970 -90.54597 34208 ft 373 kts 343°
2026-04-28 13:02 14.48664 -90.55019 34210 ft 372 kts 354°
2026-04-28 13:03 14.52084 -90.54739 34217 ft 373 kts 15°
2026-04-28 13:03 14.57058 -90.53144 34216 ft 373 kts 16°
2026-04-28 13:04 14.62030 -90.51540 34213 ft 372 kts 16°
2026-04-28 13:04 14.66162 -90.50207 34202 ft 372 kts 16°
2026-04-28 13:05 14.71122 -90.48618 34208 ft 372 kts 16°
2026-04-28 13:05 14.76083 -90.47040 34201 ft 372 kts 16°
2026-04-28 13:06 14.81044 -90.45464 34224 ft 372 kts 16°
2026-04-28 13:06 14.85985 -90.43894 34243 ft 371 kts 16°
2026-04-28 13:07 14.90936 -90.42313 34271 ft 370 kts 16°
2026-04-28 13:07 14.95857 -90.40739 34299 ft 370 kts 16°
2026-04-28 13:08 15.00793 -90.39180 34319 ft 370 kts 16°
2026-04-28 13:08 15.05745 -90.37635 34319 ft 371 kts 16°
2026-04-28 13:09 15.10685 -90.36092 34313 ft 370 kts 16°
2026-04-28 13:09 15.15635 -90.34541 34304 ft 370 kts 16°
2026-04-28 13:10 15.20577 -90.32992 34288 ft 370 kts 16°
2026-04-28 13:10 15.26317 -90.31195 34269 ft 370 kts 16°
2026-04-28 13:11 15.30458 -90.29900 34260 ft 370 kts 16°
2026-04-28 13:11 15.35401 -90.28363 34238 ft 370 kts 16°
2026-04-28 13:12 15.41159 -90.26580 34204 ft 370 kts 16°
2026-04-28 13:12 15.45396 -90.25946 34179 ft 370 kts 353°
2026-04-28 13:12 15.47895 -90.26669 34177 ft 373 kts 335°
2026-04-28 13:13 15.50023 -90.28167 34167 ft 377 kts 318°
2026-04-28 13:13 15.53612 -90.33308 34139 ft 385 kts 290°
2026-04-28 13:13 15.54078 -90.36071 34145 ft 393 kts 272°
2026-04-28 13:14 15.53925 -90.37928 34146 ft 397 kts 261°
2026-04-28 13:14 15.52997 -90.40648 34145 ft 405 kts 243°
2026-04-28 13:14 15.51313 -90.42979 34140 ft 410 kts 225°
2026-04-28 13:15 15.46673 -90.46455 34150 ft 414 kts 208°
2026-04-28 13:15 15.41174 -90.48268 34152 ft 416 kts 187°
2026-04-28 13:16 15.35373 -90.48052 34180 ft 415 kts 166°
2026-04-28 13:16 15.29995 -90.45979 33906 ft 407 kts 156°
2026-04-28 13:16 15.27327 -90.45079 33424 ft 408 kts 166°
2026-04-28 13:17 15.23650 -90.44062 32738 ft 403 kts 161°
2026-04-28 13:17 15.21881 -90.43487 32186 ft 403 kts 160°
2026-04-28 13:17 15.19196 -90.42593 31075 ft 410 kts 160°
2026-04-28 13:17 15.16471 -90.41681 29914 ft 416 kts 160°
2026-04-28 13:18 15.13687 -90.40810 28951 ft 417 kts 167°
2026-04-28 13:18 15.10803 -90.40730 28061 ft 414 kts 192°
2026-04-28 13:18 15.08081 -90.41491 27364 ft 406 kts 199°
2026-04-28 13:18 15.05385 -90.42419 26536 ft 402 kts 200°
2026-04-28 13:19 15.02777 -90.43361 25930 ft 396 kts 200°
2026-04-28 13:19 14.99356 -90.44624 25118 ft 388 kts 200°
2026-04-28 13:19 14.96838 -90.45564 24352 ft 386 kts 200°
2026-04-28 13:19 14.95174 -90.46230 23870 ft 384 kts 206°
2026-04-28 13:20 14.92818 -90.47486 23193 ft 379 kts 205°
2026-04-28 13:20 14.90410 -90.48597 22505 ft 375 kts 202°
2026-04-28 13:20 14.87980 -90.49635 21564 ft 379 kts 201°
2026-04-28 13:20 14.85499 -90.50677 20436 ft 387 kts 201°
2026-04-28 13:21 14.83008 -90.51719 19261 ft 394 kts 201°
2026-04-28 13:21 14.80469 -90.52782 18133 ft 396 kts 201°
2026-04-28 13:21 14.77913 -90.53854 17200 ft 392 kts 201°
2026-04-28 13:21 14.75413 -90.54913 16339 ft 386 kts 201°
2026-04-28 13:22 14.72946 -90.55966 15511 ft 380 kts 201°
2026-04-28 13:22 14.70517 -90.57017 14691 ft 373 kts 201°
2026-04-28 13:22 14.68144 -90.58057 13773 ft 371 kts 201°
2026-04-28 13:22 14.65762 -90.59112 12421 ft 381 kts 201°
2026-04-28 13:23 14.63325 -90.60179 11048 ft 386 kts 201°
2026-04-28 13:23 14.60862 -90.61159 10012 ft 376 kts 193°
2026-04-28 13:23 14.58393 -90.61778 9200 ft 354 kts 192°
2026-04-28 13:23 14.56042 -90.62339 8549 ft 329 kts 192°
2026-04-28 13:24 14.53909 -90.62812 8111 ft 303 kts 191°
2026-04-28 13:24 14.51882 -90.62885 7914 ft 282 kts 164°
2026-04-28 13:24 14.50236 -90.61974 7769 ft 262 kts 129°
2026-04-28 13:24 14.49530 -90.60326 7583 ft 244 kts 95°
2026-04-28 13:25 14.49314 -90.58057 7211 ft 240 kts 92°
2026-04-28 13:25 14.49315 -90.56917 6612 ft 246 kts 79°
2026-04-28 13:25 14.50119 -90.55584 6491 ft 197 kts 37°
2026-04-28 13:25 14.51253 -90.55016 6440 ft 174 kts 13°
2026-04-28 13:26 14.52383 -90.54680 6325 ft 163 kts 20°
2026-04-28 13:26 14.53792 -90.54192 5778 ft 159 kts 17°
2026-04-28 13:26 14.54488 -90.53975 5545 ft 155 kts 18°
2026-04-28 13:26 14.55487 -90.53660 5263 ft 144 kts 18°
2026-04-28 13:27 14.56445 -90.53353 5070 ft 143 kts 18°
2026-04-28 13:27 14.57387 -90.53049 4887 ft 137 kts 18°
2026-04-28 13:27 14.58198 -90.52790 4873 ft 99 kts 19°
2026-04-28 13:27 14.58578 -90.52667 4892 ft 16 kts 14°
2026-04-28 13:28 14.58664 -90.52670 4895 ft 0 kts 300°
2026-04-28 13:28 14.58665 -90.52671 4895 ft 0 kts 300°
2026-04-28 13:28 14.58666 -90.52673 4895 ft 0 kts 300°
2026-04-28 13:28 14.58666 -90.52674 4895 ft 0 kts 301°